Location: Moy Burn
(57.3833°N, 4.0667°W)
Time: 12:38:03
(UTC+00:00)

Cosmos 1707 Rocket - Pass Details

Date: 08 August 2020
Orbit: 605 x 632 km, 82.5° (Epoch: 21 September)

Event Time Altitude Azimuth Distance (km) Brightness Sun altitude
Rises 20:59:58 0° 345° (NNW) 2,897 8.1 -5.8°
Reaches altitude 10° 21:02:12 10° 344° (NNW) 1,983 7.2 -6.0°
Maximum altitude 21:06:34 69° 261° (W) 659 3.9 -6.4°
Drops below altitude 10° 21:10:52 10° 179° (S) 1,956 5.7 -6.9°
Enters shadow 21:12:54 - 177° (S) 2,785 6.5 -7.0°
